Погода в Эд-Дивании

Ирак     32°53′44″N   44°21′03″E
темп.,
°C
ветер,
м/с
пор.,
м/с
влажн.,
%
обл.,
%
осадки,
мм/ч
давл.,
гПа
погр.,
м
28 ноября, вс
вс2800:00+18сз4543100 0.0 102078
03:00+17сз4545100 0.0 102075
06:00+16сз45505 0.0 102065
09:00+19сз454041 0.0 1021240
12:00+23сз5628100 0.0 1019925
15:00+24сз5625100 0.0 10181064
18:00+20сз343487 0.0 101953
21:00+18сз33390 0.0 101918
29 ноября, пн
пн2900:00+17сз33395 0.0 101915
03:00+17зсз33401 0.0 101814
06:00+16ссз33420 0.0 101918
09:00+20с22330 0.0 1019187
12:00+25ссз34250 0.0 1019818
15:00+26ссз56230 0.0 10171168
18:00+20сз58360 0.0 1018128
21:00+19сз58395 0.0 1019130
30 ноября, вт
вт3000:00+17сз464110 0.0 101890
03:00+16сз5746100 0.0 1018107
06:00+16сз4757100 0.0 1018104
09:00+19сз5746100 0.0 1019263
12:00+24сз4430100 0.0 1017638
15:00+26сз3325100 0.0 1015761
18:00+20с1136100 0.0 101511
21:00+19ююз1138100 0.0 101611
1 декабря, ср
ср100:00+19ю3338100 0.0 101419
03:00+18ю4539100 0.0 101354
06:00+17ю4741100 0.0 101393
09:00+21ю5832100 0.0 1014281
12:00+26ю7822100 0.0 1012859
15:00+27ю6720100 0.0 10101229
18:00+23юв51026100 0.0 1010180
21:00+21ююв4929100 0.0 1010171
2 декабря, чт
чт200:00+19ю3431100 0.0 100953
03:00+18сз510420 0.0 1010164
06:00+16сз46620 0.0 1012102
09:00+18ссз45580 0.0 1014465
12:00+21зсз55450 0.0 10131610
15:00+21зсз67331 0.0 10132118
18:00+17сз48260 0.0 1015153
21:00+15сз511330 0.0 1017254